North Platte, NE

11:51 PM CST on January 20, 2017 (GMT -0600)
North Platte Regional Airport Lee Bird Field

Weather History for KLBF - June, 2013

Change the Weather History Date:

Saturday, June 15, 2013

  Actual Average Record
Temperature  
Mean Temperature 73 °F 68 °F  
Max Temperature 84 °F 82 °F 107 °F (1952)
Min Temperature 62 °F 54 °F 34 °F (1989)
Degree Days  
Heating Degree Days 0 1  
Month to date heating degree days 47 40  
Since 1 June heating degree days 47 40  
Since 1 July heating degree days 6763 6675  
Cooling Degree Days 8 4  
Month to date cooling degree days 54 45  
Year to date cooling degree days 102 73  
Since 1 June cooling degree days 54 45  
Growing Degree Days 23 (Base 50)    
Moisture  
Dew Point 59 °F    
Average Humidity 68    
Maximum Humidity 93    
Minimum Humidity 42    
Precipitation  
Precipitation 0.00 in 0.12 in 2.34 in (2004)
Month to date precipitation 0.47 1.85  
Year to date precipitation 6.63 9.29  
Snow  
Snow 0.00 in 0.00 in 0.00 in ()
Month to date snowfall 0.0 0.0  
Since 1 June snowfall 0.0 0.0  
Since 1 July snowfall 30.2 28.5  
Snow Depth 0.00 in    
Sea Level Pressure  
Sea Level Pressure 29.88 in    
Wind  
Wind Speed 12 mph (NE)    
Max Wind Speed 24 mph    
Max Gust Speed 31 mph    
Visibility 10 miles    
Events      
T = Trace of Precipitation, MM = Missing Value Source: NWS Daily Summary

Daily Weather History Graph

Daily Weather History Graph

Search for Another Location

Airport or City:

Trip Planner

Search our weather history database for the weather conditions in past years. The results will help you decide how hot, cold, wet, or windy it might be!

Date:

Astronomy

Jun. 15, 2013 Rise Set
Actual Time 6:09 AM CDT 9:17 PM CDT
Civil Twilight 5:35 AM CDT 9:50 PM CDT
Nautical Twilight 4:52 AM CDT 10:34 PM CDT
Astronomical Twilight 4:01 AM CDT 11:25 PM CDT
Moon 12:49 PM CDT (6/15) 12:50 AM CDT (6/15)
Length of Visible Light 16h 15m
Length of Day
15h 07m
Waxing Crescent, 40% of the Moon is Illuminated
Jun 15
Waxing Crescent
Jun 16
First Quarter
Jun 23
Full
Jun 29
Last Quarter
Jul 8
New

Hourly Weather History & Observations

Time (CDT) Temp. Heat Index Dew Point Humidity Pressure Visibility Wind Dir Wind Speed Gust Speed Precip Events Conditions
12:53 AM 72.0 °F - 61.0 °F 68% 29.82 in 10.0 mi NE 9.2 mph - N/A   Clear
1:53 AM 71.1 °F - 62.1 °F 73% 29.82 in 10.0 mi ENE 5.8 mph - N/A   Clear
2:53 AM 66.9 °F - 62.1 °F 84% 29.81 in 10.0 mi East 4.6 mph - N/A   Clear
3:53 AM 64.0 °F - 61.0 °F 90% 29.81 in 10.0 mi North 3.5 mph - N/A   Clear
4:53 AM 64.9 °F - 62.1 °F 90% 29.86 in 10.0 mi NNW 20.7 mph 27.6 mph N/A   Clear
5:53 AM 68.0 °F - 62.1 °F 81% 29.88 in 10.0 mi NNE 16.1 mph 23.0 mph N/A   Clear
6:53 AM 62.1 °F - 54.0 °F 75% 29.91 in 10.0 mi NNE 12.7 mph - N/A   Clear
7:53 AM 64.9 °F - 55.0 °F 70% 29.90 in 10.0 mi NE 11.5 mph 19.6 mph N/A   Clear
8:53 AM 71.1 °F - 55.9 °F 59% 29.88 in 10.0 mi NE 16.1 mph 25.3 mph N/A   Clear
9:53 AM 75.0 °F - 55.0 °F 50% 29.90 in 10.0 mi ENE 13.8 mph - N/A   Clear
10:53 AM 79.0 °F - 55.9 °F 45% 29.90 in 10.0 mi East 12.7 mph - N/A   Clear
11:53 AM 81.0 °F 80.8 °F 55.9 °F 42% 29.89 in 10.0 mi East 11.5 mph - N/A   Clear
12:53 PM 80.1 °F 80.9 °F 60.1 °F 50% 29.90 in 10.0 mi North 17.3 mph 25.3 mph N/A   Scattered Clouds
1:53 PM 80.1 °F 80.9 °F 60.1 °F 50% 29.90 in 10.0 mi NE 16.1 mph 25.3 mph N/A   Partly Cloudy
2:53 PM 81.0 °F 81.6 °F 60.1 °F 49% 29.90 in 10.0 mi NNE 12.7 mph 20.7 mph N/A   Clear
3:53 PM 82.0 °F 82.4 °F 60.1 °F 47% 29.89 in 10.0 mi NE 11.5 mph 19.6 mph N/A   Clear
4:53 PM 82.9 °F 83.2 °F 60.1 °F 46% 29.87 in 10.0 mi NE 12.7 mph 18.4 mph N/A   Scattered Clouds
5:53 PM 80.1 °F 80.9 °F 60.1 °F 50% 29.87 in 10.0 mi NNE 9.2 mph - N/A   Scattered Clouds
6:53 PM 81.0 °F 81.3 °F 59.0 °F 47% 29.87 in 10.0 mi ENE 12.7 mph 17.3 mph N/A   Scattered Clouds
7:53 PM 79.0 °F - 59.0 °F 50% 29.88 in 10.0 mi NE 12.7 mph - N/A   Clear
8:53 PM 75.0 °F - 59.0 °F 57% 29.90 in 10.0 mi NE 9.2 mph - N/A   Clear
9:53 PM 71.1 °F - 59.0 °F 66% 29.94 in 10.0 mi NE 8.1 mph - N/A   Clear
10:53 PM 69.1 °F - 59.0 °F 70% 29.96 in 10.0 mi ENE 6.9 mph - N/A   Clear
11:53 PM 66.9 °F - 59.0 °F 76% 29.93 in 10.0 mi NE 10.4 mph - N/A   Clear